Location: Unspecified
(21.1210°N, 0.0000°E)
Time: 04:21:13
(UTC+00:00)

Courier 1B Rocket - All Passes

Search period start: 05 April 2026 00:00
Search period end: 15 April 2026 00:00
Orbit: 920 x 1201 km, 28.2° (Epoch: 28 March)

Date Brightness Start Highest point End Pass type
(mag) Time Alt. Az. Time Alt. Az. Time Alt. Az.
5 Apr - 01:02:35 10° W 01:08:37 50° N 01:14:44 10° ENE night (unlit)
5 Apr - 02:56:38 10° WNW 03:02:38 46° N 03:08:54 10° ENE visible
5 Apr - 04:50:02 10° WNW 04:56:29 79° NNE 05:03:25 10° ESE visible
5 Apr - 06:43:43 10° W 06:49:58 41° SSW 06:56:39 10° SE daylight
5 Apr - 08:40:57 10° SW 08:43:26 12° SSW 08:45:57 10° S daylight
5 Apr - 20:16:20 10° S 20:20:36 18° SSE 20:24:45 10° ESE visible
5 Apr - 22:07:26 10° SW 22:13:48 59° SSE 22:19:56 10° ENE night (unlit)
6 Apr - 00:01:03 10° W 00:07:15 59° NNW 00:13:25 10° ENE night (unlit)
6 Apr - 01:55:17 10° WNW 02:01:11 43° N 02:07:15 10° ENE visible
6 Apr - 03:48:53 10° WNW 03:55:08 62° NNE 04:01:45 10° E visible
6 Apr - 05:42:17 10° WNW 05:48:41 57° SSW 05:55:33 10° SE daylight
6 Apr - 07:37:31 10° WSW 07:42:03 18° SSW 07:46:48 10° S daylight
6 Apr - 19:17:28 10° SSE 19:19:20 11° SSE 19:21:11 10° SE visible
6 Apr - 21:06:27 10° SW 21:12:38 41° SSE 21:18:31 10° E visible
6 Apr - 22:59:32 10° WSW 23:05:57 75° NNW 23:12:12 10° ENE night (unlit)
7 Apr - 00:53:48 10° WNW 00:59:46 45° N 01:05:45 10° ENE night (unlit)
7 Apr - 02:47:41 10° WNW 02:53:46 51° N 03:00:04 10° E visible
7 Apr - 04:41:02 10° WNW 04:47:25 79° SSW 04:54:13 10° ESE visible
7 Apr - 06:35:18 10° W 06:40:45 27° SSW 06:46:32 10° SSE daylight
7 Apr - 20:05:43 10° SSW 20:11:26 28° SSE 20:16:51 10° E visible
7 Apr - 21:58:06 10° WSW 22:04:43 83° SSE 22:11:00 10° ENE visible
7 Apr - 23:52:14 10° W 23:58:22 50° N 00:04:23 10° ENE night (unlit)
8 Apr - 01:46:25 10° WNW 01:52:22 45° N 01:58:24 10° ENE visible
8 Apr - 03:39:51 10° WNW 03:46:09 79° NNE 03:52:44 10° ESE visible
8 Apr - 05:33:35 10° W 05:39:30 39° SSW 05:45:49 10° SE daylight
8 Apr - 07:31:32 10° SW 07:32:53 11° SSW 07:34:15 10° SSW daylight
8 Apr - 19:05:24 10° SSW 19:10:10 19° SSE 19:14:44 10° ESE visible
8 Apr - 20:56:48 10° SW 21:03:29 61° SSE 21:09:46 10° ENE visible
8 Apr - 22:50:36 10° W 22:57:00 59° NNW 23:03:10 10° ENE night (unlit)
9 Apr - 00:44:58 10° WNW 00:50:57 43° N 00:56:52 10° ENE night (unlit)
9 Apr - 02:38:41 10° WNW 02:44:51 62° NNE 02:51:12 10° E visible
9 Apr - 04:32:08 10° WNW 04:38:18 55° SSW 04:44:48 10° SE visible
9 Apr - 06:27:31 10° WSW 06:31:34 17° SSW 06:35:46 10° S daylight
9 Apr - 18:06:01 10° S 18:08:51 13° SSE 18:11:36 10° SE daylight
9 Apr - 19:55:41 10° SW 20:02:14 43° SSE 20:08:23 10° E visible
9 Apr - 21:48:58 10° WSW 21:55:40 75° NNW 22:02:00 10° ENE visible
9 Apr - 23:43:25 10° WNW 23:49:31 45° N 23:55:27 10° ENE night (unlit)
10 Apr - 01:37:26 10° WNW 01:43:31 51° N 01:49:37 10° E visible
10 Apr - 03:30:51 10° WNW 03:37:06 77° SSW 03:43:35 10° ESE visible
10 Apr - 05:25:13 10° W 05:30:20 25° SSW 05:35:41 10° SSE visible
10 Apr - 18:54:50 10° SSW 19:00:58 30° SSE 19:06:44 10° E visible
10 Apr - 20:47:25 10° WSW 20:54:21 84° SSE 21:00:50 10° ENE visible
10 Apr - 22:41:44 10° W 22:48:05 50° N 22:54:10 10° ENE night (unlit)
11 Apr - 00:36:04 10° WNW 00:42:07 45° N 00:48:03 10° ENE night (unlit)
11 Apr - 02:29:37 10° WNW 02:35:52 80° NNE 02:42:14 10° ESE visible
11 Apr - 04:23:27 10° W 04:29:09 37° SSW 04:35:06 10° SE visible
11 Apr - 17:54:23 10° SSW 17:59:39 21° SSE 18:04:40 10° ESE daylight
11 Apr - 19:46:01 10° SW 19:53:03 63° SSE 19:59:36 10° ENE visible
11 Apr - 21:39:59 10° W 21:46:41 60° NNW 21:52:59 10° ENE visible
11 Apr - 23:34:32 10° WNW 23:40:41 44° N 23:46:36 10° ENE night (unlit)
12 Apr - 01:28:23 10° WNW 01:34:36 63° NNE 01:40:48 10° E night (unlit)
12 Apr - 03:21:57 10° W 03:28:00 53° SSW 03:34:13 10° SE visible
12 Apr - 05:17:33 10° WSW 05:21:09 15° SSW 05:24:51 10° S visible
12 Apr - 16:54:43 10° S 16:58:16 14° SSE 17:01:43 10° ESE daylight
12 Apr - 18:44:48 10° SW 18:51:45 45° SSE 18:58:13 10° E visible
12 Apr - 20:38:15 10° WSW 20:45:18 75° NNW 20:51:50 10° ENE visible
12 Apr - 22:32:52 10° WNW 22:39:13 45° N 22:45:15 10° ENE visible
13 Apr - 00:27:03 10° WNW 00:33:15 52° N 00:39:19 10° E night (unlit)
13 Apr - 02:20:36 10° WNW 02:26:50 76° SSW 02:33:07 10° ESE visible
13 Apr - 04:15:07 10° W 04:19:59 24° SSW 04:24:59 10° SSE visible
13 Apr - 17:43:53 10° SSW 17:50:24 32° SSE 17:56:33 10° E daylight
13 Apr - 19:36:37 10° WSW 19:43:54 86° SSE 19:50:40 10° ENE visible
13 Apr - 21:31:04 10° W 21:37:44 51° N 21:44:01 10° ENE visible
13 Apr - 23:25:34 10° WNW 23:31:51 46° N 23:37:51 10° ENE night (unlit)
14 Apr - 01:19:18 10° WNW 01:25:38 81° NNE 01:31:53 10° ESE night (unlit)
14 Apr - 03:13:15 10° W 03:18:51 35° SSW 03:24:33 10° SE visible
14 Apr - 16:43:21 10° SSW 16:49:01 22° SSE 16:54:28 10° E daylight
14 Apr - 18:35:08 10° SW 18:42:32 65° SSE 18:49:24 10° ENE visible
14 Apr - 20:29:13 10° W 20:36:16 60° NNW 20:42:49 10° ENE visible
14 Apr - 22:23:56 10° WNW 22:30:22 45° N 22:36:26 10° ENE visible
